Regional Weather Roundup
Issued by NWS Newport/Morehead, NC

Current Version | Previous Version | Text Only | Print | Product List | Glossary Off
Versions: 1 2 3 4 5 6 7 8 9 10 11 12 13 14 15 16 17 18 19 20 21 22 23 24 25 26 27 28 29 30 31 32 33 34 35 36 37 38 39 40 41 42 43 44 45 46 47 48 49 50
000 ASUS42 KMHX 282226 RWRMHX WEATHER ROUNDUP FOR EASTERN NORTH CAROLINA NATIONAL WEATHER SERVICE NEWPORT/MOREHEAD CITY NC 600 PM EDT SUN MAY 28 2017 NOTE: "FAIR" INDICATES FEW OR NO CLOUDS BELOW 12,000 FEET WITH NO SIGNIFICANT WEATHER AND/OR OBSTRUCTIONS TO VISIBILITY NCZ015>017-031-032-045>047-102-103-282300- NORTH COAST CITY SKY/WX TMP DP RH WIND PRES REMARKS EDENTON PTSUNNY 85 75 72 CALM 29.78R ELIZABETH CITY LGT RAIN 77 75 93 NW10 29.78R KITTY HAWK CLOUDY 75 73 92 CALM 29.76F MANTEO CLOUDY 79 71 75 N9 29.77R $$ NCZ045>047-081-094-103-104-282300- CENTRAL COAST CITY SKY/WX TMP DP RH WIND PRES REMARKS FRISCO MOSUNNY 79 72 79 SW13G23 29.79F $$ NCZ095-097-098-100-101-282300- SOUTHERN COAST CITY SKY/WX TMP DP RH WIND PRES REMARKS BEAUFORT MOSUNNY 81 74 79 SW17G25 29.82R CEDAR ISLAND NOT AVBL JACKSONVILLE NOT AVBL PINEY ISLAND NOT AVBL WILMINGTON MOSUNNY 86 72 62 SW15 29.83R $$ NCZ011>013-027>030-043-044-078>080-089-090>093-098-282300- COASTAL PLAIN CITY SKY/WX TMP DP RH WIND PRES REMARKS AHOSKIE NOT AVBL CLINTON SUNNY 89 67 47 SW14G21 29.82R ELIZABETHTOWN MOSUNNY 91 65 42 SW8 29.82R GOLDSBORO MOSUNNY 90 63 40 W14 29.78S GREENVILLE CLOUDY 86 64 48 W5 29.82R HAVELOCK NOT AVBL KENANSVILLE CLOUDY 88 64 45 W13G20 29.81R KINSTON CLOUDY 88 63 42 SW12 29.80R NEW BERN MOSUNNY 88 67 49 W9G20 29.80R RICHLANDS MOSUNNY 90 66 45 SW12G24 29.81R ROCKY MOUNT CLOUDY 84 65 52 W9 29.79S WASHINGTON CLOUDY 86 66 51 SW9 29.78R WHITEVILLE MOSUNNY 89 67 48 SW5 29.81F $$ AMZ130-135-150-152-154-156-158-170-250-252-270-ANZ085-086-088-633-658-670-282300- MARINE OBSERVATIONS STATION/POSITION TIME TEMP WIND PRES WAVE SWELL AIR SEA DIR/SP/G HT/PER HT/PER (UTC) (F) (DEG/KT/KT) (MB) (FT/S) (FT/S) CHESAPEAKE LIGHT NOT AVBL 64 E VA BEACH 2150 68 67 190/ 14/ 17 1008.5 3/ 6 2/ 6 DUCK 2200 71 66 30/ 6/ 7 1007.6 2 E DUCK 2200 68 N/A 2/ 3 OREGON INLET 2200 190/ 22/ 26 1007.4 13E OREGON INLT 2148 66 N/A 3/ 6 2/ 6 HATTERAS CG 2200 78 74 220/ 15/ 20 1008.7 DIAMOND BUOY 2150 78 76 220/ 19/ 23 1009.1 4/ 6 2/10 CAPE LOOKOUT 2200 78 230/ 12/ 17 1009.4 BEAUFORT LAB 2200 80 76 220/ 7/ 17 1008.9 30 SE NEW RVR IN 2208 78 77 240/ 17/ 23 1010.6 30 SE NEW RVR IN 2143 76 N/A 5/ 5 27 SE WRIGHTSVLE 2208 77 77 220/ 16/ 21 1010.0 5 SE WRIGHTSVLE 2208 78 76 210/ 12/ 19 1010.6 225 S CAPE HAT 2150 77 77 210/ 14/ 16 1014.3 4/ 5 2/ 7 41 SE CHARLESTON 2210 77 76 210/ 14/ 17 1011.9 $$

USA.gov is the U.S. government's official web portal to all federal, state and local government web resources and services.